Location: Del Oro Observatory
(38.3044°N, 104.8119°W)
Time: 17:38:47
(UTC-06:00)

Daily predictions for brighter satellites

Satellite Brightness Start Highest point End
(mag) Time Altitude Azimuth Time Altitude Azimuth Time Altitude Azimuth
Cosmos 1892 3.0 20:05:48 10° N 20:09:28 45° E 20:13:07 10° SSE
ALOS 2.6 20:05:29 10° S 20:10:08 74° WSW 20:14:49 10° NNW
Cosmos 2297 Rocket 3.1 20:06:24 10° NNW 20:11:52 52° WSW 20:17:19 10° S
DELTA 2 R/B (1) 3.7 20:07:16 10° WNW 20:12:53 79° SSW 20:18:30 10° ESE
BREEZE-M DEB (TANK) 3.8 20:10:38 10° WNW 20:12:54 31° SW 20:16:58 10° SSE
USA 186 2.6 20:11:52 10° SE 20:14:06 25° ENE 20:16:30 10° NNE
FENGYUN 3A 3.9 20:09:34 10° S 20:14:55 74° WSW 20:20:17 10° NNW
Nadezhda 4 Rocket 4.1 20:08:56 10° N 20:15:10 66° E 20:21:26 10° SSE
H-2A R/B 2.8 20:11:50 10° SSE 20:15:44 82° ENE 20:19:38 10° N
Cosmos 1315 Rocket 3.7 20:12:04 10° NNE 20:15:46 32° ENE 20:19:23 10° SE
Abrixas rocket 2.4 20:16:04 10° WSW 20:19:21 73° NNW 20:22:38 10° NE
Cosmos 2263 Rocket 4.0 20:17:28 10° NNE 20:20:30 15° NE 20:23:31 10° E
Cosmos 1634 Rocket 4.4 20:14:43 10° SSE 20:20:32 42° E 20:26:25 10° NNE
Meteor 2-3 Rocket 3.8 20:16:21 10° N 20:22:04 87° E 20:27:51 10° S
ORS 1 (USA 231) 4.5 20:19:08 10° WSW 20:22:14 88° NNW 20:25:20 10° ENE
Cosmos 2322 Rocket 3.0 20:18:29 10° SSE 20:23:06 27° ESE 20:27:45 10° NE
Cosmos 1707 Rocket 3.8 20:19:06 10° SSE 20:23:23 49° E 20:27:40 10° NNE
Cosmos 1092 Rocket 4.2 20:17:43 10° N 20:23:56 54° E 20:30:07 10° SSE
Cosmos 2034 Rocket 4.5 20:20:36 10° SSW 20:26:44 66° W 20:32:52 10° N
Spot 2 Rocket 3.5 20:22:49 10° SSE 20:27:54 84° ENE 20:33:01 10° NNW
CZ-2D R/B 3.3 20:30:21 10° SSE 20:34:14 90° ENE 20:38:09 10° NNW
Cosmos 2360 Rocket 3.9 20:34:16 12° E 20:34:34 12° E 20:36:29 10° ENE
Cosmos 1980 Rocket 2.4 20:29:04 10° SSW 20:34:44 80° WNW 20:40:28 10° NNE
Meteor 1-29 3.7 20:32:15 10° NNE 20:35:24 31° E 20:38:31 10° SSE
Helios 1B rocket 2.7 20:32:05 10° NNE 20:36:03 46° E 20:39:59 10° S
Lacrosse 4 Rocket 3.0 20:33:48 10° N 20:37:09 21° NE 20:39:39 14° E
Resurs 1-3 3.7 20:33:03 10° S 20:37:25 80° WSW 20:41:50 10° NNW
SL-8 R/B 4.1 20:33:00 10° WNW 20:37:44 57° SW 20:41:56 13° SE
Intercosmos 25 Rocket 4.0 20:36:12 13° SE 20:38:20 25° E 20:41:19 10° NNE
Cosmos 1825 3.3 20:38:12 10° NNE 20:41:27 26° ENE 20:43:21 18° ESE
Cosmos 1869 Rocket 3.6 20:38:13 10° N 20:42:43 89° ENE 20:47:11 10° S
Cosmos 1900 4.4 20:40:37 10° NNW 20:45:45 87° WSW 20:50:28 12° SSE
Envisat 3.2 20:42:59 11° SSE 20:47:47 54° ENE 20:52:44 10° N
Cosmos 1302 Rocket 4.1 20:43:07 10° SSW 20:48:19 79° WNW 20:53:33 10° NNE
Cosmos 1939 Rocket 3.4 20:45:36 17° SE 20:48:24 40° ENE 20:52:10 10° N
CZ-4B DEB 3.0 20:48:17 22° SE 20:49:53 43° ENE 20:52:47 10° N
SL-16 R/B 2.4 20:44:33 10° S 20:49:54 46° ESE 20:55:19 10° NE
Cosmos 2242 Rocket 3.9 20:45:45 10° SSE 20:50:04 46° E 20:54:23 10° NNE
Centaur AC-42 4.4 20:19:57 10° WSW 20:51:32 32° SSW 20:57:14 14° SSE
SJ-11-01 4.5 20:49:40 15° SE 20:53:22 52° ENE 20:57:54 10° N
Spot 1 4.5 20:52:05 10° SSE 20:57:14 83° ENE 21:02:23 10° NNW
Cosmos 1627 Rocket 4.5 20:51:08 10° N 20:57:19 65° E 21:03:09 11° SSE
ATLAS 5 CENTAUR R/B 3.9 20:57:48 10° N 21:02:24 22° NE 21:05:54 15° E
Cosmos 2195 Rocket 4.4 20:56:32 10° N 21:02:39 74° E 21:08:36 11° SSE
Cosmos 2279 Rocket 4.1 20:56:51 10° SSE 21:02:53 53° E 21:08:56 10° NNE
OAO 3 Rocket 3.4 20:59:43 10° WSW 21:04:31 55° S 21:07:08 26° ESE
SEDSat Delta rocket 4.4 21:01:23 10° SW 21:06:14 33° SSE 21:08:32 25° SE
Resurs 01 Rocket 3.4 21:02:20 10° SSW 21:06:18 32° W 21:10:18 10° NNW
Helios 1A 3.2 21:03:27 11° S 21:07:24 73° WSW 21:11:40 10° NNW
DELTA 2 R/B(2) 3.6 21:06:21 10° W 21:09:39 74° N 21:09:55 60° ENE
SAR-Lupe-4 3.9 21:07:09 16° S 21:09:55 65° WSW 21:13:30 10° NNW
USA 234 3.2 21:07:21 22° SE 21:11:53 85° NE 21:18:29 10° NW
ARGOS 4.4 21:11:51 22° E 21:13:21 25° ENE 21:17:37 10° NNE
Atlas Centaur 2 3.6 21:07:26 10° SW 21:13:48 32° SSE 21:16:54 25° ESE
Cosmos 1428 Rocket 4.4 21:16:17 10° N 21:22:22 62° E 21:25:44 27° SSE
ATLAS CENTAUR R/B 4.2 21:19:48 10° W 21:22:36 22° SW 21:27:58 10° S
Cosmos 1408 2.6 21:19:26 10° N 21:23:08 81° W 21:24:35 35° S
ERS-1 Rocket 3.1 21:22:11 33° SE 21:24:15 58° ENE 21:29:11 10° N
ERBS 2.2 21:22:11 10° NW 21:25:39 78° NE 21:26:02 66° ESE
Sich 1 Rocket 4.4 21:27:22 10° NNE 21:31:27 34° ENE 21:31:27 34° ENE
Cosmos 220 Rocket 4.4 21:33:05 10° NNW 21:37:30 62° WSW 21:39:12 35° S
SeaSat 1 3.0 21:39:59 38° E 21:40:52 42° ENE 21:45:31 10° N
Cosmos 1992 Rocket 4.0 21:36:52 10° SSW 21:42:06 81° WNW 21:47:22 10° NNE
H-2A R/B 4.2 21:44:20 13° NE 21:44:20 13° NE 21:45:43 10° NNE
Cosmos 1908 Rocket 3.8 21:44:20 10° N 21:48:15 51° ENE 21:48:15 51° ENE
Milstar 3 3.5 21:43:21 10° WSW 21:49:49 34° S 21:50:57 32° S
MetOp-A 4.0 21:49:41 52° SE 21:50:59 74° ENE 21:56:20 10° N
Cosmos 1933 3.8 21:50:28 35° SW 21:51:55 58° W 21:55:55 10° N
USA 229 DEB 3.8 21:51:56 43° SE 21:53:00 47° ESE 21:59:32 10° NE
USA 229 3.8 21:52:13 44° SE 21:53:05 46° ESE 21:59:37 10° NE
YAOGAN 6 3.3 21:54:41 46° WSW 21:55:00 47° W 21:58:32 10° NNW
COSMOS 2428 4.3 22:05:01 21° ENE 22:05:01 21° ENE 22:07:15 10° NE
Cosmos 1867 4.1 21:57:44 10° NNW 22:02:56 43° NE 22:03:20 42° ENE
H-2A R/B 2.6 22:04:41 41° ENE 22:04:41 41° ENE 22:08:57 10° N
Terra 3.5 22:05:46 21° NE 22:05:46 21° NE 22:08:27 10° NNE
Cosmos 2263 Rocket 2.1 21:59:32 10° NNW 22:05:07 82° WSW 22:06:05 62° S
Cosmos 2322 Rocket 3.5 22:01:44 10° SW 22:06:55 38° WNW 22:12:09 10° N
Cosmos 1733 Rocket 4.5 22:06:06 10° NNW 22:10:08 34° W 22:11:35 27° SW
Meteor 2-10 Rocket 4.0 22:11:52 33° SSW 22:14:34 68° W 22:20:23 10° N
SL-08 RB Rocket 4.0 22:16:00 61° NNE 22:16:00 61° NNE 22:19:55 10° N
Lacrosse 4 Rocket 2.7 22:11:58 10° NW 22:15:56 35° WSW 22:16:01 35° WSW
Cosmos 2360 Rocket 2.2 22:15:51 44° SSW 22:17:43 82° WNW 22:23:26 10° NNE
Cosmos 2322 3.6 22:22:29 67° SSW 22:23:18 86° WNW 22:29:03 10° NNE
Cosmos 968 Rocket 3.5 22:21:33 10° NNW 22:26:25 78° NNW 22:26:25 78° NNW
Okean 1-7 4.3 22:32:09 37° N 22:32:09 37° N 22:34:52 10° N
Cosmos 1703 Rocket 4.5 22:34:29 47° NW 22:34:29 47° NW 22:38:10 10° N
SPOT 5 3.4 22:34:04 54° W 22:34:04 54° W 22:38:31 10° NNW
SL-16 R/B 4.3 22:29:39 10° WSW 22:34:14 25° NW 22:38:49 10° N
Cosmos 2266 Rocket 4.2 22:31:09 10° NNW 22:37:21 66° W 22:38:21 58° SW
CZ-4C R/B 4.4 22:37:12 10° NNW 22:42:44 24° NE 22:44:54 21° ENE
Cosmos 2333 Rocket 4.3 22:46:51 15° NE 22:46:51 15° NE 22:47:57 10° NE
ATLAS 5 CENTAUR R/B 2.4 22:41:35 10° NW 22:47:28 76° W 22:47:28 76° W
SPOT 1/Viking Rocket 4.2 22:52:06 52° WNW 22:52:06 52° WNW 22:56:37 10° NNW
ARGOS 4.1 22:53:21 40° W 22:53:21 40° W 22:58:22 10° NNW
Cosmos 2278 Rocket 3.8 22:52:30 10° N 22:56:09 23° NE 22:56:09 23° NE
Atlas Centaur 2 3.9 22:55:21 10° WSW 22:59:34 32° SW 22:59:34 32° SW
Cosmos 1844 Rocket 3.5 23:03:24 10° NNW 23:07:24 47° N 23:07:24 47° N
SeaSat 1 4.5 23:19:46 21° W 23:19:46 21° W 23:22:24 10° NW
H-2A R/B 4.3 23:21:27 22° NW 23:21:27 22° NW 23:23:08 10° NNW
Cosmos 2219 Rocket 3.7 23:27:00 30° NNE 23:27:00 30° NNE 23:29:45 10° NNE
Terra 4.0 23:44:38 22° NW 23:44:38 22° NW 23:46:37 10° NNW
H-2A R/B 4.2 23:45:18 18° WNW 23:45:18 18° WNW 23:47:30 10° NW
COSMOS 2428 4.1 23:46:58 33° NW 23:46:58 33° NW 23:51:36 10° N
